Probability
0 0 0 0 0 0 0 0 0 0 0 0 0 0 0 0 0 0 0 0 0 0 0 0 0 0 0 0 0 0 0 0 0 0 0 0 0 0 0 0 0 0 0 0
0 0 0 0 0 0 0 0 0 0 0 0 0 0 0 0 0 0 0 0 0 0 0 0 0 0 0 0 0 0 0 0 0 0 0 0 0 0 0 0 0 0 0 0
0 0 0 0 0 0 0 0 0 0 0 0 0 0 0 0 0 0 0 0 0 0 0 0 0 0 0 0 0 0 0 0 0 0 0 0 0 0 0 0 0 0 0 0
0 0 0 0 0 0 0 0 0 0 0 0 0 0 0 0 0 0 0 0 0 0 0 0 0 0 0 0 0 0 0 0 0 0 0 0 0 0 0 0 0 0 0 0
0 0 0 0 0 0 0 0 0 0 0 0 0 0 0 0 0 0 0 0 0 0 0 0 0 0 0 0 0 0 0 0 0 0 0 0 0 0 0 0 0 1 1 1
0 0 0 0 0 0 0 0 0 0 0 0 0 0 0 0 0 0 0 0 0 0 0 0 0 0 0 0 0 0 0 0 0 0 0 0 0 0 0 0 0 1 2 2
0 0 0 0 0 0 0 0 0 0 0 0 0 0 0 0 0 0 0 0 0 0 0 0 0 0 0 0 0 0 0 0 0 0 0 0 0 0 0 0 0 0 1 1
0 0 0 0 0 0 0 0 0 0 0 0 0 0 0 0 0 0 0 0 0 0 0 0 0 0 0 0 0 0 0 0 0 0 0 0 0 0 0 0 0 0 0 0
0 0 0 0 0 0 0 0 0 0 0 0 0 0 0 0 0 0 0 0 0 0 0 0 0 0 0 0 0 0 0 0 0 0 0 0 0 0 0 0 0 0 0 0
0 0 0 0 0 0 0 0 0 0 0 0 0 0 0 0 0 0 0 0 0 0 0 0 0 0 0 0 0 0 0 0 0 0 0 0 0 0 0 0 0 0 0 0
0 0 0 0 0 0 0 0 0 0 0 0 0 0 0 0 0 0 0 0 0 0 0 0 0 0 0 0 0 0 0 0 0 0 0 0 0 0 0 0 0 0 0 0
0 0 0 0 0 0 0 0 0 0 0 0 0 0 0 0 0 0 0 0 0 0 0 0 0 0 0 0 0 0 0 0 0 0 0 0 0 0 0 0 0 0 0 0
0 0 0 0 0 0 0 0 0 0 0 0 0 0 0 0 0 0 0 0 0 0 0 0 0 0 0 0 0 0 0 0 0 0 0 0 0 0 0 0 0 0 0 0
0 0 0 0 0 0 0 0 0 0 0 0 0 0 0 0 0 0 0 0 0 0 0 0 0 0 0 0 0 0 0 0 0 0 0 0 0 0 0 0 0 0 0 0
0 0 0 0 0 0 0 0 0 0 0 0 0 0 0 0 0 0 0 0 0 0 0 0 0 0 0 0 0 0 0 0 0 0 0 0 0 0 0 0 0 0 0 0
0 0 0 0 0 0 0 0 0 0 0 0 0 0 0 0 0 0 0 0 0 0 0 0 0 0 0 0 0 0 0 0 0 0 0 0 0 0 0 0 0 0 0 0
0 0 0 0 0 0 0 0 0 0 0 0 0 0 0 0 0 0 0 0 0 0 0 0 0 0 0 0 0 0 0 0 0 0 0 0 0 0 0 0 0 0 0 0
0 0 0 0 0 0 0 0 0 0 0 0 0 0 0 0 0 0 0 0 0 0 0 0 0 0 0 0 0 0 0 0 0 0 0 0 0 0 0 0 0 0 0 0
0 0 0 0 0 0 0 0 0 0 0 0 0 0 0 0 0 0 0 0 0 0 0 0 0 0 0 0 0 0 1 1 1 0 0 0 0 0 0 0 0 0 0 0
0 0 0 0 0 0 0 0 0 0 0 0 0 0 0 0 0 0 0 0 0 0 0 0 0 0 0 0 0 0 1 2 2 1 0 0 0 0 0 0 0 0 0 0
0 0 0 0 0 0 0 0 0 0 0 0 0 0 0 0 0 0 0 0 0 0 0 0 0 0 0 0 0 0 0 1 1 1 1 0 0 0 0 0 0 0 0 0
0 0 0 0 0 0 0 0 0 0 0 0 0 0 0 0 0 0 0 0 0 0 0 0 0 0 0 0 0 0 0 0 1 1 1 0 0 0 0 0 0 0 0 0
0 0 0 0 0 0 0 0 0 0 0 0 0 0 0 0 0 0 0 0 0 0 0 0 0 0 0 0 0 0 0 0 0 1 2 1 0 0 0 0 0 0 0 0
0 0 0 0 0 0 0 0 0 0 0 0 0 0 0 0 0 0 0 0 0 0 0 0 0 0 0 0 0 0 0 0 0 1 2 2 1 0 0 0 0 0 0 0
0 0 0 0 0 0 0 0 0 0 0 0 0 0 0 0 0 0 0 0 0 0 0 0 0 0 0 0 0 0 0 0 0 0 1 2 2 1 1 1 1 0 0 0
0 0 0 0 0 0 0 0 0 0 0 0 0 0 0 0 0 0 0 0 0 0 0 0 0 0 0 0 0 0 0 0 0 0 1 2 3 2 2 2 2 1 0 0
Wind_Speed
2 4 4 4 2 1 3 4 5 4 3 3 5 7 8 8 9 9 9 9 8 8 7 7 6 7 7 7 7 6 6 6 4 3 2 2 3 3 4 4 6 5 5 5
4 3 2 2 3 4 5 5 5 3 3 3 4 5 6 9 10 9 9 10 10 10 9 8 8 8 8 8 7 7 6 5 4 2 2 2 3 3 4 4 5 5 5 5
2 3 2 4 5 5 4 5 5 4 2 3 4 5 8 9 9 8 8 8 9 10 11 11 10 9 8 8 8 6 6 6 5 4 3 3 3 3 3 4 4 5 6 6
2 2 4 5 4 4 4 3 4 4 4 3 4 3 7 9 10 10 11 10 10 10 10 10 10 10 9 9 7 7 7 6 5 5 4 3 2 3 4 3 4 4 5 5
3 2 3 4 2 3 2 3 3 4 3 3 5 4 4 8 10 12 12 12 11 11 11 11 11 10 10 9 8 7 7 6 6 5 4 3 2 3 3 3 4 4 5 5
3 2 1 0 1 2 5 5 4 4 4 4 4 5 3 6 9 9 11 13 13 12 11 11 10 10 9 8 8 8 8 7 6 5 5 4 4 4 4 3 3 3 3 3
4 4 2 2 4 4 6 5 4 5 4 2 2 4 2 2 4 7 9 12 13 12 12 12 12 12 11 10 9 9 9 8 7 7 5 5 4 4 4 3 3 2 3 3
4 4 4 3 3 3 6 6 3 2 2 2 4 4 1 1 2 5 7 10 12 12 12 12 12 12 11 12 11 10 10 9 8 7 6 5 5 3 3 3 2 2 2 3
3 3 4 2 2 3 4 4 2 2 1 2 3 3 2 2 4 5 7 10 12 12 12 12 12 12 12 12 12 11 11 10 9 8 7 6 6 4 4 4 3 2 2 3
2 3 4 4 4 2 3 1 3 4 3 3 3 4 3 5 4 5 7 9 11 11 12 12 11 12 12 12 11 11 11 10 9 8 7 5 6 5 4 4 4 3 3 3
4 4 5 6 5 5 5 5 4 3 3 3 2 2 2 1 2 3 5 7 9 11 11 11 11 11 11 11 11 11 11 10 9 9 8 7 6 6 5 4 4 4 4 4
5 4 5 4 2 2 5 5 5 4 3 3 2 1 2 1 2 3 3 4 7 9 10 10 11 11 12 12 12 12 11 10 9 9 8 8 7 7 6 6 5 5 5 4
7 5 5 6 6 6 5 5 6 5 4 4 4 2 3 1 1 2 2 3 5 7 9 10 10 11 12 12 12 11 11 10 10 9 9 8 8 8 7 6 6 5 5 5
6 6 5 2 0 4 6 7 7 7 5 5 5 4 3 3 3 2 2 3 4 7 8 9 10 11 12 12 12 12 11 10 10 10 9 9 8 8 7 7 6 6 6 5
6 6 5 3 1 3 5 7 9 10 8 7 5 7 7 5 4 3 3 4 4 6 8 10 10 10 11 12 12 12 11 11 11 11 10 10 9 8 7 7 7 6 5 5
6 6 6 5 5 5 7 7 9 10 9 10 10 9 6 4 3 3 3 5 5 6 8 9 10 11 12 12 12 12 11 11 11 11 10 9 8 8 8 8 7 7 6 5
7 7 6 4 4 5 7 8 10 9 9 9 10 7 3 3 2 3 3 4 5 5 6 8 9 10 11 11 12 12 11 11 11 11 10 10 9 9 9 8 8 7 7 6
7 8 5 4 5 6 0 1 5 8 9 10 10 7 5 3 2 2 3 4 4 4 6 7 7 8 9 10 10 10 10 11 11 11 10 10 10 10 9 8 8 8 7 7
6 6 5 5 5 5 3 3 5 6 6 6 8 7 4 3 3 2 2 3 3 4 4 5 5 6 7 8 9 10 11 10 11 11 11 11 11 10 9 9 9 8 7 7
6 7 6 6 6 5 2 3 2 5 5 2 4 4 4 6 5 2 2 2 2 2 3 4 4 5 6 7 9 10 10 10 10 10 10 10 10 10 10 10 9 8 7 7
9 7 9 8 7 4 0 3 5 6 1 1 2 3 4 3 1 3 3 3 3 3 3 4 4 4 5 6 8 9 9 9 8 8 8 9 10 10 10 9 8 7 7 7
10 8 9 8 8 5 4 5 6 1 1 0 1 2 3 2 2 3 3 3 4 4 3 3 4 4 4 5 7 8 7 6 6 7 8 8 9 8 8 8 7 7 7 7
8 6 5 6 4 0 4 4 3 2 2 1 1 2 3 3 3 3 3 3 3 4 4 4 4 4 4 5 5 6 6 6 6 7 7 7 8 7 8 8 8 7 7 6
5 4 5 6 5 4 3 3 3 3 2 1 1 2 3 3 3 4 3 3 3 3 4 4 4 4 4 4 4 4 4 6 7 7 7 7 7 7 7 6 7 7 7 7
5 7 7 7 5 3 3 4 3 2 2 2 2 2 3 4 4 4 4 4 4 4 4 4 4 4 4 4 4 3 4 5 6 6 6 6 6 6 6 6 5 6 6 6
7 7 7 6 5 4 4 3 3 4 4 3 3 3 3 3 4 4 4 4 4 4 4 4 4 4 4 4 4 3 3 4 5 5 5 4 4 4 4 5 4 2 3 3
Wind_Direction
163 188 173 166 189 239 181 178 163 142 157 209 191 167 173 180 190 193 190 189 182 176 167 163 167 172 169 169 168 156 160 155 150 138 130 110 91 80 73 60 52 51 46 47
174 161 126 164 173 177 181 181 159 145 153 215 184 188 187 194 204 203 196 190 185 178 169 169 177 178 178 174 175 169 165 162 157 134 114 102 91 81 73 70 63 50 52 51
156 90 137 179 166 171 183 196 179 166 163 180 191 204 204 201 208 207 208 204 191 188 180 178 181 180 179 180 179 176 168 162 160 149 133 128 121 126 109 87 67 51 53 56
125 125 181 188 181 199 173 170 175 178 198 189 219 216 202 201 203 205 205 201 196 194 189 184 184 184 186 184 182 182 175 167 161 162 162 151 137 106 88 80 82 80 64 60
125 152 181 191 200 220 131 149 172 193 216 229 213 241 187 193 206 204 202 200 196 194 191 188 188 186 185 180 180 181 173 172 168 169 155 167 135 110 112 106 95 84 75 64
121 137 252 197 159 195 151 158 162 198 226 232 216 235 205 191 205 196 195 196 195 194 193 190 187 182 182 179 177 177 177 171 171 173 169 174 141 138 133 123 105 100 93 79
160 159 157 188 171 177 199 203 194 192 199 193 162 241 233 174 201 206 197 192 192 191 190 189 187 186 183 180 181 179 177 174 177 179 177 171 162 159 150 139 121 111 102 92
188 165 162 188 222 203 203 228 246 226 193 154 187 229 147 88 195 204 201 192 188 190 190 188 189 189 186 185 184 184 182 181 179 184 178 174 166 170 149 149 133 119 97 92
206 141 131 164 232 246 201 203 311 290 241 231 192 194 181 163 167 176 182 183 186 187 188 189 188 190 188 187 186 187 188 186 183 185 180 178 171 171 160 163 151 130 118 110
221 167 150 161 190 190 282 185 204 227 220 203 189 201 175 160 156 164 175 183 185 184 186 188 188 189 188 187 186 188 193 190 185 186 181 177 178 173 170 169 159 155 139 130
221 202 163 184 210 189 180 195 220 231 269 268 189 130 72 165 177 177 175 187 188 188 187 186 186 188 186 184 184 186 191 189 184 186 182 179 180 176 176 176 168 169 157 154
204 230 186 174 141 276 241 231 225 234 206 259 272 100 95 235 228 210 195 188 189 189 188 186 184 183 184 186 186 187 189 187 185 186 184 184 178 180 183 177 176 174 164 161
182 215 191 173 178 190 216 221 230 249 247 235 238 147 119 134 238 216 208 197 190 188 187 184 183 185 185 187 188 187 188 187 182 183 185 182 181 184 184 180 176 178 172 169
211 221 237 235 116 181 203 207 215 225 234 235 239 257 244 265 262 244 209 200 189 189 187 185 187 188 186 188 189 187 186 185 181 181 186 187 185 185 183 178 176 179 178 179
222 231 227 247 234 215 224 216 213 227 242 256 265 273 282 290 276 254 211 194 191 189 189 189 191 191 188 189 190 188 186 183 182 183 188 190 187 182 180 172 176 175 176 182
222 236 225 222 217 225 237 230 223 228 239 250 263 271 279 286 267 226 206 198 198 193 193 193 195 193 192 191 190 189 188 185 183 187 191 187 185 178 179 178 177 175 177 181
202 221 228 223 193 231 241 224 217 220 224 234 247 258 268 256 236 227 213 207 204 194 193 195 197 196 195 195 192 190 189 185 187 190 190 185 185 181 184 179 176 178 180 179
211 216 229 233 216 241 278 134 220 232 241 243 253 262 258 255 251 244 231 215 206 196 193 195 197 194 194 191 189 187 184 186 189 191 190 188 187 184 180 179 181 187 186 180
226 217 221 232 239 250 235 207 207 226 246 241 243 248 238 215 198 190 189 208 213 204 195 192 193 188 185 183 182 181 183 186 190 192 193 189 189 185 182 184 187 188 187 187
199 222 226 223 236 241 207 125 178 234 236 215 222 216 203 197 207 149 141 172 180 162 168 172 171 174 177 177 176 181 186 189 195 195 195 189 188 188 188 191 191 186 187 192
184 199 218 228 236 242 178 133 176 219 213 96 203 190 185 200 63 82 117 131 129 125 136 151 153 158 167 171 172 182 188 194 195 191 191 188 188 190 190 189 187 185 186 188
200 200 209 218 227 222 138 167 206 261 8 226 185 175 169 143 92 105 119 124 121 119 128 146 147 143 149 162 173 183 191 192 185 180 183 186 186 186 184 183 185 189 188 191
217 221 218 225 236 36 165 204 245 285 249 218 180 169 162 146 131 128 128 125 121 123 131 142 145 140 142 158 175 183 183 180 177 175 180 183 182 183 183 183 183 186 191 199
195 211 215 219 224 217 211 226 230 233 231 188 163 162 161 145 131 128 121 115 116 123 128 136 140 141 141 151 165 176 168 173 176 177 180 182 182 182 183 187 190 192 194 201
189 187 209 222 214 196 200 202 197 169 158 151 136 137 149 138 124 122 121 117 115 113 117 130 142 140 137 141 149 161 166 174 179 178 176 180 182 183 187 188 199 207 206 208
194 201 211 216 202 206 188 175 176 167 155 153 140 121 122 132 125 116 109 108 114 118 121 123 124 127 128 128 130 137 163 182 183 177 175 176 177 180 186 190 190 198 234 209